This is the latest recevied weather packets stored in our database for station/object W4SKW. If no packets are shown the sender has not sent any weather packets the latest 1 day(s).
| Time | Temp. | Humidity | Pressure | Rain* | Wind** | Luminosity | Snow |
|---|---|---|---|---|---|---|---|
| 1777988578 | 15° C | 78% | 1017.5 hPa | 0 mm | 0 m/s | 61 W/m² | - |
| 1777988274 | 14.44° C | 81% | 1017.4 hPa | 0 mm | 0 m/s | 52 W/m² | - |
| 1777987971 | 13.89° C | 80% | 1017.1 hPa | 0 mm | 0 m/s | 54 W/m² | - |
| 1777987667 | 13.33° C | 85% | 1016.9 hPa | 0 mm | 0 m/s | 53 W/m² | - |
| 1777987364 | 13.33° C | 85% | 1016.9 hPa | 0 mm | 0 m/s | 53 W/m² | - |
| 1777987061 | 13.33° C | 86% | 1017.3 hPa | 0 mm | 0 m/s | 54 W/m² | - |
| 1777986758 | 12.78° C | 85% | 1017.3 hPa | 0 mm | 0 m/s | 51 W/m² | - |
| 1777986456 | 12.78° C | 87% | 1017.5 hPa | 0 mm | 0 m/s | 60 W/m² | - |
| 1777986154 | 12.22° C | 88% | 1017.1 hPa | 0 mm | 0 m/s | 41 W/m² | - |
| 1777985850 | 11.67° C | 89% | 1017.1 hPa | 0 mm | 0 m/s | 36 W/m² | - |
| 1777985465 | 10.56° C | 95% | 1016.6 hPa | 0 mm | 0 m/s | 58 W/m² | - |
| 1777985162 | 10.56° C | 95% | 1016.6 hPa | 0 mm | 0 m/s | 58 W/m² | - |
| 1777984858 | 10.56° C | 95% | 1016.6 hPa | 0 mm | 0 m/s | 58 W/m² | - |
| 1777984554 | 10.56° C | 96% | 1016.7 hPa | 0 mm | 0 m/s | 43 W/m² | - |
| 1777984251 | 10° C | 96% | 1016.6 hPa | 0 mm | 0 m/s | 33 W/m² | - |
| 1777983948 | 10° C | 96% | 1016.6 hPa | 0 mm | 0 m/s | 35 W/m² | - |
| 1777983645 | 10° C | 96% | 1016.4 hPa | 0 mm | 0 m/s | 33 W/m² | - |
| 1777983341 | 9.44° C | 96% | 1016.3 hPa | 0 mm | 0 m/s | 35 W/m² | - |
| 1777983038 | 9.44° C | 96% | 1016.3 hPa | 0 mm | 0 m/s | 35 W/m² | - |
| 1777982735 | 8.89° C | 97% | 1016.3 hPa | 0 mm | 0 m/s | 48 W/m² | - |
| 1777982430 | 8.89° C | 97% | 1016.3 hPa | 0 mm | 0 m/s | 48 W/m² | - |
| 1777982125 | 8.89° C | 97% | 1016.3 hPa | 0 mm | 0 m/s | 49 W/m² | - |
| 1777981822 | 8.89° C | 97% | 1016.3 hPa | 0 mm | 0 m/s | 46 W/m² | - |
| 1777981519 | 8.33° C | 97% | 1016.2 hPa | 0 mm | 0 m/s | 47 W/m² | - |
| 1777981204 | 7.78° C | 97% | 1016.2 hPa | 0 mm | 0 m/s | 35 W/m² | - |
* Rain latest hour (hover to see other rain measurements)
** Current wind speed in m/s (hover to see current wind gust speed)